Weather Roundup
Issued by NWS Chicago, IL

Home | Current Version | Previous Version | Text Only | Print | Product List | Glossary Off
Versions: 1 2 3 4 5 6 7 8 9 10 11 12 13 14 15 16 17 18 19 20 21 22 23 24 25 26 27 28 29 30 31 32 33 34 35 36 37 38 39 40 41 42 43 44 45 46 47 48 49 50

139
NZUS59 KLOT 231704
HRRLOT

CHICAGO AREA WEATHER ROUNDUP
NATIONAL WEATHER SERVICE CHICAGO/ROMEOVILLE IL
1200 PM CDT TUE MAY 23 2017

NOTE: "FAIR" INDICATES FEW OR NO CLOUDS BELOW 12,000 FEET WITH NO
SIGNIFICANT WEATHER AND/OR OBSTRUCTIONS TO VISIBILITY.

* THESE STATIONS ARE NOT UNDER NWS QUALITY CONTROL. THEY ALSO MAY NOT
  REPORT WEATHER SUCH AS PRECIPITATION OR FOG.

ILZ005-006-012>014-019>023-231800-
NORTHEAST ILLINOIS

CITY           SKY/WX    TMP DP  RH WIND       PRES   REMARKS
OHARE          CLOUDY    61  53  75 SW8       29.78F
MIDWAY         LGT RAIN  62  54  74 SW5       29.79F
AURORA         CLOUDY    60  56  86 SW3       29.79F
LANSING*       CLOUDY    61  55  79 CALM      29.80F
WAUKEGAN       CLOUDY    63  53  70 S13       29.78S
DUPAGE AIRPORT CLOUDY    59  57  93 SW7       29.78F
WHEELING       LGT RAIN  60  55  83 SW6       29.80S
KANKAKEE*      CLOUDY    66  54  66 CALM      29.79F
MORRIS*        CLOUDY    59  55  84 CALM      29.77F
LEWIS AIRPORT* CLOUDY    60  56  87 CALM      29.79F
NORTHERLY ISL    N/A     61  52  72 S5          N/A
$$

WIZ051-052-058>065-066-070>072-231800-
SOUTHEAST WISCONSIN

CITY           SKY/WX    TMP DP  RH WIND       PRES   REMARKS
MILWAUKEE      PTSUNNY   66  55  67 SW8       29.77F
KENOSHA*       PTSUNNY   65  52  62 SW13      29.78F
RACINE*        PTSUNNY   66  53  63 SW7       29.78F
WAUKESHA       CLOUDY    59  54  82 SW5       29.78S
$$

INZ001>003-010>013-019-020-231800-
NORTHWEST INDIANA

CITY           SKY/WX    TMP DP  RH WIND       PRES   REMARKS
GARY*          CLOUDY    63  54  72 CALM      29.81F
MICHIGAN CITY* NOT AVBL
RENSSELAER*    NOT AVBL
VALPARAISO     CLOUDY    65  55  70 CALM      29.81F
$$

LMZ740>746-231800-
SOUTHERN LAKE MICHIGAN

STATION/POSITION TIME  SKY/WX   TEMP WIND        PRES    VSBY
                                AIR  DIR/SP/G
                 (UTC)          (F)  (DEG/KT/KT) (MB)    (MI)
HARRISON CRIB    1640            60  190/  8/  8   N/A
BURNHAM HARBOR   1700            61  210/  3/  8   N/A
CALUMET HARBOR   1630            61  300/  4/  6 1008.6F
BURNS HARBOR     1640            58   20/  2/  3 1010.2F
MICHIGAN CITY    1640            59  280/  1/  2   N/A
$$

ABBREVIATIONS USED IN REMARKS
   TC - TEMPERATURE IN CELSIUS
  WCI - WIND CHILL INDEX
   HX - HEAT INDEX
  VSB - VISIBILITY
$$




USA.gov is the U.S. government's official web portal to all federal, state and local government web resources and services.